Home > Weather > Chelyabinsk > Past weeks

Flag for Russia Weather for the Past 2 Weeks in Chelyabinsk, Russia

Now
21 °F

Light snow. Ice fog.


Feels Like: 14 °F
Forecast: -1 / 12 °F
Wind: 6 mph from Southeast

Location: Chelyabinsk-Balandino

Current Time: Feb 14, 2016 at 11:04:49 AM

Latest Report: Feb 14, 2016 at 10:30 AM


Visibility: 2 mi

Pressure: 30.57 "Hg

Humidity: 93%

Dew point: 19 °F

Location of ChelyabinskLocation

Historic Weather in Chelyabinsk — Graph

°F

Chelyabinsk Temperature Yesterday

Maximum temperature yesterday: 23 °F (at 4:00 PM)
Minimum temperature yesterday: 3 °F (at 7:30 AM)
Average temperature yesterday: 16 °F

High & Low Weather Summary for the Past Weeks

 TemperatureHumidityPressure
High36 °F (Feb 10, 4:30 PM)100% (Feb 14, 2:00 AM)30.57 "Hg (Feb 14, 2:00 AM)
Low-17 °F (Jan 31, 8:30 AM)26% (Feb 10, 11:30 PM)29.45 "Hg (Feb 4, 1:30 PM)
Average18 °F78%30.12 "Hg
* Reported Jan 30 10:30 AM — Feb 14 10:00 AM, Chelyabinsk, Weather by CustomWeather, © 2016

Note: Actual official high and low records may vary slightly from our data, if they occured in-between our weather recording intervals... More about our weather records

Advertising

Chelyabinsk Weather History for the Previous 24 Hours

 ConditionsComfort  
Time TempWeatherWind HumidityBarometerVisibility
10:00 AM
Sun, Feb 14
21 °FLight snow. Ice fog.3 mph93%30.57 "Hg2 mi
9:30 AM21 °FLight snow. Ice fog.1 mph93%30.57 "Hg2 mi
9:00 AM21 °FLight snow. Ice fog.1 mph93%30.54 "Hg2 mi
8:30 AM21 °FLight snow. Ice fog.3 mph93%30.57 "Hg2 mi
8:00 AM21 °FLight snow. Ice fog.3 mph93%30.54 "Hg2 mi
7:30 AM21 °FLight snow. Passing clouds.1 mph93%30.54 "Hg4 mi
7:00 AM23 °FLight snow. Passing clouds.3 mph86%30.54 "Hg4 mi
6:30 AM23 °FLight snow. Ice fog.3 mph86%30.54 "Hg3 mi
6:00 AM23 °FLight snow. Ice fog.3 mph86%30.54 "Hg2 mi
5:30 AM21 °FLight snow. Ice fog.3 mph100%30.54 "Hg2 mi
5:00 AM21 °FLight snow. Ice fog.6 mph100%30.54 "Hg2 mi
4:30 AM21 °FLight snow. Ice fog.6 mph93%30.54 "Hg1 mi
4:00 AM21 °FLight snow. Ice fog.3 mph93%30.54 "Hg1 mi
3:30 AM21 °FLight snow. Ice fog.3 mph93%30.54 "Hg1 mi
2:30 AM21 °FIce fog.3 mph93%30.54 "Hg1 mi
2:00 AM19 °FIce fog.3 mph100%30.54 "Hg1 mi
1:30 AM19 °FIce fog.1 mph93%30.54 "Hg2 mi
1:00 AM19 °FIce fog.1 mph93%30.54 "Hg2 mi
12:30 AM21 °FIce fog.1 mph93%30.54 "Hg2 mi
12:00 AM21 °FIce fog.3 mph93%30.54 "Hg2 mi
11:30 PM
Sat, Feb 13
19 °FIce fog.3 mph93%30.57 "Hg1 mi
11:00 PM19 °FIce fog.1 mph93%30.57 "Hg1 mi
10:30 PM19 °FIce fog.3 mph93%30.57 "Hg2 mi
10:00 PM19 °FIce fog.3 mph93%30.57 "Hg2 mi
9:30 PM21 °FIce fog.3 mph86%30.57 "Hg1 mi
9:00 PM21 °FIce fog.6 mph86%30.57 "Hg2 mi
8:30 PM21 °FIce fog.1 mph86%30.57 "Hg2 mi
8:00 PM21 °FIce fog.3 mph86%30.57 "Hg2 mi
7:30 PM21 °FIce fog.3 mph86%30.57 "Hg2 mi
7:00 PM21 °FSnow flurries. Ice fog.1 mph86%30.57 "Hg2 mi
6:30 PM21 °FSnow flurries. Ice fog.1 mph86%30.57 "Hg2 mi
6:00 PM21 °FSnow flurries. Ice fog.1 mph93%30.57 "Hg2 mi
5:30 PM21 °FBroken clouds.1 mph86%30.57 "Hg4 mi
5:00 PM21 °FPartly sunny.No wind93%30.57 "Hg4 mi
4:30 PM21 °FPartly sunny.No wind86%30.57 "Hg4 mi
4:00 PM23 °FPartly sunny.No wind86%30.57 "Hg4 mi
3:30 PM21 °FPartly sunny.No wind93%30.57 "Hg4 mi
3:00 PM21 °FPartly sunny.No wind93%30.57 "Hg4 mi
2:30 PM19 °FIce fog.No wind93%30.57 "Hg2 mi
2:00 PM19 °FIce fog.No wind93%30.57 "Hg3 mi
1:30 PM19 °FIce fog.No wind93%30.54 "Hg3 mi
1:00 PM18 °FIce fog.No wind93%30.54 "Hg2 mi
12:30 PM16 °FIce fog.1 mph93%30.54 "Hg2 mi
12:00 PM16 °FIce fog.1 mph86%30.54 "Hg2 mi
11:30 AM14 °FIce fog.1 mph92%30.54 "Hg2 mi
11:00 AM12 °FIce fog.1 mph92%30.54 "Hg2 mi
Weather by CustomWeather, © 2016

See weather overviewHow to use our weather pages